Location: Most
(50.5133°N, 13.6207°E)
Time: 18:51:45
(UTC+02:00)

ISS - Pass Details

Date: 15 May 2019
Orbit: 407 x 410 km, 51.6° (Epoch: 23 May)

Event Time Altitude Azimuth Distance (km) Brightness Sun altitude
Exits shadow 02:18:41 31° 278° (W) 753 -2.6 -18.7°
Maximum altitude 02:20:07 71° 356° (N) 437 -3.6 -18.6°
Drops below altitude 10° 02:23:25 10° 81° (E) 1,479 -0.6 -18.4°
Sets 02:25:31 0° 84° (E) 2,341 0.4 -18.3°
